| time (UTC) | temp F | wind direction | speed MPH | gust MPH | rain 1hr in | rain 24hr in | rain mn in | humidity % | barometer mb |
| 20260503021054 | 52 | 253 | 2.0 | 5.0 | 0.00 | 0.15 | 0.00 | 85 | 1014.1 |
| 20260503020055 | 53 | 282 | 3.0 | 7.0 | 0.00 | 0.15 | 0.00 | 85 | 1014.1 |
| 20260503015055 | 53 | 9 | 1.0 | 4.0 | 0.00 | 0.15 | 0.00 | 85 | 1014.1 |
| 20260503014054 | 53 | 137 | 2.0 | 5.0 | 0.00 | 0.15 | 0.00 | 84 | 1014.1 |
| 20260503013056 | 53 | 72 | 2.0 | 5.0 | 0.00 | 0.15 | 0.00 | 85 | 1014.1 |
| 20260503012056 | 53 | 326 | 2.0 | 4.0 | 0.00 | 0.15 | 0.00 | 85 | 1014.3 |
| 20260503011056 | 54 | 32 | 2.0 | 6.0 | 0.00 | 0.15 | 0.00 | 85 | 1014.3 |
| 20260503010057 | 54 | 233 | 2.0 | 5.0 | 0.00 | 0.15 | 0.00 | 85 | 1014.5 |
| 20260503005056 | 54 | 355 | 1.0 | 6.0 | 0.00 | 0.15 | 0.00 | 85 | 1014.5 |
| 20260503004056 | 54 | 355 | 1.0 | 5.0 | 0.00 | 0.15 | 0.00 | 84 | 1014.6 |
| 20260503003057 | 55 | 288 | 1.0 | 5.0 | 0.00 | 0.15 | 0.00 | 84 | 1014.6 |
| 20260503002056 | 55 | 196 | 2.0 | 6.0 | 0.00 | 0.15 | 0.00 | 84 | 1014.8 |
| 20260503001054 | 55 | 144 | 2.0 | 6.0 | 0.00 | 0.15 | 0.00 | 84 | 1014.8 |
| 20260502235107 | 55 | 206 | 2.0 | 7.0 | 0.00 | 0.15 | 0.00 | 83 | 1015.0 |
| 20260502234102 | 56 | 275 | 2.0 | 6.0 | 0.00 | 0.15 | 0.00 | 82 | 1015.0 |
| 20260502233104 | 56 | 215 | 2.0 | 6.0 | 0.00 | 0.15 | 0.00 | 82 | 1015.1 |
| 20260502232105 | 55 | 138 | 2.0 | 8.0 | 0.00 | 0.15 | 0.00 | 83 | 1015.2 |
| 20260502231101 | 54 | 264 | 1.0 | 4.0 | 0.00 | 0.15 | 0.00 | 87 | 1015.3 |
| 20260502225101 | 53 | 273 | 0.0 | 3.0 | 0.00 | 0.15 | 0.00 | 91 | 1015.6 |
| 20260502224102 | 53 | 20 | 0.0 | 3.0 | 0.00 | 0.15 | 0.00 | 91 | 1015.6 |
| 20260502223104 | 54 | 37 | 0.0 | 4.0 | 0.00 | 0.15 | 0.00 | 88 | 1015.5 |
| 20260502222101 | 54 | 29 | 1.0 | 3.0 | 0.00 | 0.15 | 0.00 | 88 | 1015.5 |
| 20260502221101 | 55 | 56 | 1.0 | 3.0 | 0.00 | 0.15 | 0.00 | 86 | 1015.4 |
| 20260502215108 | 55 | 52 | 1.0 | 3.0 | 0.00 | 0.15 | 0.15 | 87 | 1015.5 |
| 20260502214108 | 55 | 75 | 0.0 | 2.0 | 0.00 | 0.15 | 0.15 | 88 | 1015.6 |
| 20260502213109 | 54 | 55 | 0.0 | 2.0 | 0.00 | 0.15 | 0.15 | 89 | 1015.8 |
| 20260502212107 | 55 | 71 | 1.0 | 4.0 | 0.00 | 0.15 | 0.15 | 89 | 1015.8 |
| 20260502211105 | 54 | 79 | 0.0 | 0.0 | 0.00 | 0.15 | 0.15 | 90 | 1015.8 |
| 20260502210109 | 54 | 80 | 0.0 | 0.0 | 0.00 | 0.15 | 0.15 | 91 | 1015.8 |
| 20260502205107 | 55 | 73 | 0.0 | 0.0 | 0.00 | 0.15 | 0.15 | 91 | 1015.8 |
| 20260502204109 | 55 | 89 | 1.0 | 3.0 | 0.00 | 0.15 | 0.15 | 91 | 1015.9 |
| 20260502203110 | 55 | 338 | 1.0 | 4.0 | 0.00 | 0.15 | 0.15 | 91 | 1015.9 |
| 20260502202114 | 55 | 108 | 0.0 | 4.0 | 0.00 | 0.15 | 0.15 | 91 | 1015.9 |
| 20260502201113 | 54 | 142 | 0.0 | 3.0 | 0.00 | 0.15 | 0.15 | 91 | 1016.0 |
| 20260502200111 | 55 | 136 | 0.0 | 2.0 | 0.00 | 0.15 | 0.15 | 90 | 1016.0 |
| 20260502195100 | 54 | 169 | 1.0 | 6.0 | 0.00 | 0.15 | 0.15 | 92 | 1016.0 |
| 20260502194100 | 53 | 187 | 1.0 | 5.0 | 0.00 | 0.15 | 0.15 | 92 | 1016.1 |
| 20260502193106 | 54 | 201 | 0.0 | 3.0 | 0.00 | 0.15 | 0.15 | 90 | 1016.0 |
| 20260502192106 | 54 | 147 | 1.0 | 4.0 | 0.00 | 0.15 | 0.15 | 90 | 1016.0 |
| 20260502191109 | 54 | 147 | 2.0 | 6.0 | 0.00 | 0.15 | 0.15 | 90 | 1016.0 |
| 20260502190107 | 55 | 279 | 2.0 | 9.0 | 0.02 | 0.15 | 0.15 | 89 | 1015.9 |
| 20260502185106 | 55 | 189 | 1.0 | 7.0 | 0.05 | 0.15 | 0.15 | 89 | 1015.8 |
| 20260502184104 | 55 | 233 | 1.0 | 7.0 | 0.07 | 0.15 | 0.15 | 89 | 1015.6 |
| 20260502183108 | 54 | 122 | 1.0 | 5.0 | 0.09 | 0.15 | 0.15 | 91 | 1015.5 |
| 20260502182100 | 55 | 317 | 1.0 | 5.0 | 0.09 | 0.15 | 0.15 | 91 | 1015.6 |
| 20260502180107 | 56 | 165 | 4.0 | 10.0 | 0.09 | 0.15 | 0.15 | 86 | 1016.2 |
| 20260502170104 | 56 | 129 | 1.0 | 5.0 | 0.06 | 0.06 | 0.06 | 91 | 1016.2 |
| 20260502163102 | 56 | 60 | 1.0 | 6.0 | 0.06 | 0.06 | 0.06 | 89 | 1016.5 |
| 20260502161104 | 59 | 163 | 5.0 | 13.0 | 0.02 | 0.02 | 0.02 | 75 | 1016.5 |
| 20260502152101 | 70 | 288 | 6.0 | 12.0 | 0.00 | 0.00 | 0.00 | 56 | 1015.1 |
| 20260502151104 | 70 | 197 | 6.0 | 14.0 | 0.00 | 0.00 | 0.00 | 56 | 1015.3 |
| 20260502123057 | 67 | 356 | 6.0 | 10.0 | 0.00 | 0.00 | 0.00 | 61 | 1018.0 |
| 20260502122056 | 66 | 204 | 6.0 | 11.0 | 0.00 | 0.00 | 0.00 | 63 | 1018.2 |
| 20260502121055 | 66 | 203 | 8.0 | 15.0 | 0.00 | 0.00 | 0.00 | 61 | 1018.3 |
| 20260502115053 | 66 | 196 | 7.0 | 14.0 | 0.00 | 0.00 | 0.00 | 61 | 1018.6 |
| 20260502113056 | 67 | 163 | 4.0 | 9.0 | 0.00 | 0.00 | 0.00 | 62 | 1018.7 |
| 20260502112057 | 66 | 201 | 6.0 | 11.0 | 0.00 | 0.00 | 0.00 | 62 | 1018.8 |
| 20260502111057 | 66 | 205 | 6.0 | 11.0 | 0.00 | 0.00 | 0.00 | 62 | 1018.9 |
| 20260502110055 | 67 | 89 | 6.0 | 12.0 | 0.00 | 0.00 | 0.00 | 61 | 1018.8 |
| 20260502105057 | 66 | 96 | 4.0 | 8.0 | 0.00 | 0.00 | 0.00 | 62 | 1019.0 |
| 20260502104056 | 66 | 201 | 7.0 | 13.0 | 0.00 | 0.00 | 0.00 | 63 | 1019.1 |
| 20260502103055 | 67 | 202 | 7.0 | 13.0 | 0.00 | 0.00 | 0.00 | 62 | 1018.9 |
| 20260502102055 | 68 | 188 | 7.0 | 15.0 | 0.00 | 0.00 | 0.00 | 61 | 1018.9 |
| 20260502101057 | 67 | 200 | 8.0 | 17.0 | 0.00 | 0.00 | 0.00 | 62 | 1019.0 |
| 20260502071055 | 57 | 208 | 5.0 | 8.0 | 0.00 | 0.00 | 0.00 | 75 | 1020.8 |
| 20260502070052 | 55 | 222 | 4.0 | 7.0 | 0.00 | 0.00 | 0.00 | 78 | 1021.1 |
| 20260502064054 | 55 | 256 | 3.0 | 8.0 | 0.00 | 0.00 | 0.00 | 77 | 1021.2 |
| 20260502063054 | 55 | 277 | 2.0 | 6.0 | 0.00 | 0.00 | 0.00 | 74 | 1021.1 |
| 20260502062051 | 56 | 294 | 2.0 | 6.0 | 0.00 | 0.00 | 0.00 | 71 | 1020.9 |
| 20260502061054 | 56 | 174 | 3.0 | 8.0 | 0.00 | 0.00 | 0.00 | 70 | 1021.1 |
| 20260502060056 | 56 | 260 | 3.0 | 11.0 | 0.00 | 0.00 | 0.00 | 68 | 1021.3 |
| 20260502055056 | 56 | 84 | 3.0 | 10.0 | 0.00 | 0.00 | 0.00 | 67 | 1021.5 |
| 20260502053056 | 55 | 210 | 1.0 | 3.0 | 0.00 | 0.00 | 0.00 | 63 | 1021.5 |
| 20260502052050 | 55 | 131 | 2.0 | 4.0 | 0.00 | 0.00 | 0.00 | 63 | 1021.3 |
| 20260502045053 | 55 | 159 | 1.0 | 3.0 | 0.00 | 0.00 | 0.00 | 63 | 1021.3 |
| 20260502044053 | 55 | 164 | 2.0 | 5.0 | 0.00 | 0.00 | 0.00 | 61 | 1021.3 |
| 20260502042052 | 55 | 197 | 4.0 | 7.0 | 0.00 | 0.00 | 0.00 | 59 | 1021.2 |
| 20260502041052 | 55 | 176 | 4.0 | 7.0 | 0.00 | 0.00 | 0.00 | 57 | 1021.2 |
| 20260502035055 | 55 | 226 | 4.0 | 9.0 | 0.00 | 0.00 | 0.00 | 53 | 1021.4 |
| 20260502034051 | 55 | 32 | 2.0 | 8.0 | 0.00 | 0.00 | 0.00 | 50 | 1021.3 |
| 20260502032056 | 57 | 187 | 3.0 | 8.0 | 0.00 | 0.00 | 0.00 | 46 | 1021.4 |
| 20260502031053 | 57 | 190 | 4.0 | 10.0 | 0.00 | 0.00 | 0.00 | 45 | 1021.5 |
| 20260502030055 | 57 | 189 | 6.0 | 15.0 | 0.00 | 0.00 | 0.00 | 44 | 1021.6 |
| 20260502025052 | 55 | 169 | 3.0 | 11.0 | 0.00 | 0.00 | 0.00 | 49 | 1021.7 |
| 20260502024051 | 53 | 18 | 1.0 | 4.0 | 0.00 | 0.00 | 0.00 | 51 | 1021.7 |
| 20260502023053 | 53 | 51 | 2.0 | 6.0 | 0.00 | 0.00 | 0.00 | 51 | 1021.8 |
| 20260502022053 | 54 | 311 | 2.0 | 6.0 | 0.00 | 0.00 | 0.00 | 49 | 1021.8 |